This demonstration page uses our WeatherBlox Daily Observations layout. Learn more.

Left ArrowRight Arrow

Hourly Observations for October 30, 2018

Temp ( °F °C ) Dew Point ( °F °C ) Humidity (%) Winds ( mph kmh ) Pressure ( in mb ) Visibility ( mi km ) Precip ( " mm )
12:51 am 00:51 Clear 57 13.9 47 8.3 69 69 E 6 9 29.87 1011 10 16 0.00 0.00
1:51 am 01:51 Clear 55 12.8 47 8.3 74 74 Calm 29.87 1011 10 16 0.00 0.00
2:51 am 02:51 Clear 56 13.3 47 8.3 72 72 Calm 29.86 1011 10 16 0.00 0.00
3:51 am 03:51 Clear 57 13.9 46 7.8 67 67 ESE 5 7 29.85 1011 10 16 0.00 0.00
4:51 am 04:51 Clear 56 13.3 46 7.8 70 70 E 7 11 29.85 1011 10 16 0.00 0.00
5:51 am 05:51 Clear 57 13.9 46 7.8 67 67 Calm 29.86 1011 10 16 0.00 0.00
6:51 am 06:51 Sunny 54 12.2 48 8.9 80 80 Calm 29.88 1012 10 16 0.00 0.00
7:51 am 07:51 Sunny 61 16.1 49 9.4 65 65 ENE 3 6 29.87 1012 10 16 0.00 0.00
8:51 am 08:51 Sunny 67 19.4 46 7.8 47 47 ESE 9 15 29.88 1012 10 16 0.00 0.00
9:51 am 09:51 Sunny 68 20 44 6.7 42 42 SE 8 13 29.88 1012 10 16 0.00 0.00
10:51 am 10:51 Sunny 72 22.2 45 7.2 38 38 E 5 7 29.87 1011 10 16 0.00 0.00
11:51 am 11:51 Sunny 75 23.9 44 6.7 33 33 S 5 7 29.84 1011 10 16 0.00 0.00
12:51 pm 12:51 Sunny 77 25 43 6.1 30 30 Calm 29.80 1009 10 16 0.00 0.00
1:51 pm 13:51 Sunny 79 26.1 42 5.6 27 27 E 7 11 29.77 1008 10 16 0.00 0.00
2:51 pm 14:51 Mostly Sunny 78 25.6 41 5 27 27 Calm 29.74 1007 10 16 0.00 0.00
3:51 pm 15:51 Sunny 78 25.6 40 4.4 26 26 VRB 3 6 29.73 1007 10 16 0.00 0.00
4:51 pm 16:51 Sunny 77 25 38 3.3 24 24 W 10 17 29.72 1007 10 16 0.00 0.00
5:51 pm 17:51 Mostly Cloudy 73 22.8 41 5 32 32 WNW 12 19 29.73 1007 10 16 0.00 0.00
6:29 pm 18:29 Mostly Cloudy with Thunderstorms 72 22.2 43 6.1 35 35 WSW 6 9 29.68 1005 10 16 0.00 0.00
6:51 pm 18:51 Mostly Cloudy with Nearby Thunderstorms 71 21.7 45 7.2 39 39 WNW 15 24 29.75 1008 10 16 0.00 0.00
7:25 pm 19:25 Cloudy 71 21.7 44 6.7 38 38 NW 15 24 29.71 1006 10 16 0.00 0.00
7:34 pm 19:34 Cloudy with Nearby Thunderstorms 72 22 43 6 36 36 NW 17 28 29.71 1006 10 16 0.00 0.00
7:48 pm 19:48 Cloudy with Light Rain 70 21 48 9 46 46 W 21 33 29.71 1006 10 16 0.00 0.00
7:51 pm 19:51 Cloudy with Nearby Thunderstorms 69 20.6 47 8.3 45 45 WNW 14 22 29.76 1008 10 16 0.00 0.03
8:22 pm 20:22 Mostly Cloudy 66 19 50 10 56 56 NW 15 24 29.74 1007 10 16 0.00 0.00
8:49 pm 20:49 Cloudy with Nearby Thunderstorms 66 19 48 9 52 52 NNW 13 20 29.74 1007 10 16 0.00 0.03
8:51 pm 20:51 Cloudy with Nearby Thunderstorms 66 18.9 48 8.9 52 52 NNW 13 20 29.75 1007 10 16 0.00 0.03
9:04 pm 21:04 Cloudy 64 18 48 9 56 56 NNW 12 19 29.74 1007 10 16 0.00 0.00
9:26 pm 21:26 Cloudy with Strong Thunderstorms 62 16.7 52 11.1 70 70 W 14 22 29.80 1009 2 3 0.10 2.54
9:38 pm 21:38 Cloudy with Thunderstorms 61 16 54 12 77 77 W 14 22 29.83 1010 9 14 0.00 0.00
9:49 pm 21:49 Cloudy 61 16 54 12 77 77 W 6 9 29.80 1009 10 16 0.12 3.05
9:51 pm 21:51 Cloudy 60 15.6 54 12.2 80 80 W 6 9 29.78 1009 10 16 0.12 3.05
10:51 pm 22:51 Mostly Clear 60 15.6 52 11.1 75 75 NNW 10 17 29.78 1008 10 16 0.00 0.00
11:51 pm 23:51 Mostly Cloudy 62 16.7 51 10.6 67 67 NNW 13 20 29.77 1008 10 16 0.00 0.00

Powered by AerisWeather